Tracking 27086 objects as of 22-Mar-2023
HD Live streaming from Space Station
objects crossing your sky now

STARLINK-5321

Track STARLINK-5321 now!
10-day predictions
STARLINK-5321 is classified as:


NORAD ID: 55302
Int'l Code: 2023-010AK
Perigee: 364.3 km
Apogee: 368.2 km
Inclination: 70.0 °
Period: 91.7 minutes
Semi major axis: 6737 km
RCS: Unknown
Launch date: January 19, 2023
Source: United States (US)
Launch site: AIR FORCE WESTERN TEST RANGE (AFWTR)
Your satellite tracking list
Your tracking list is empty




NASA's NSSDC Master Catalog

Two Line Element Set (TLE):
1 55302U 23010AK  23080.91877308  .00004245  00000-0  37048-4 0  9998
2 55302  70.0016 256.3156 0002919 272.7654  87.3207 15.69926885 10145
Source of the keplerian elements: AFSPC